Regional Weather Roundup
Issued by NWS

Home | Current Version | Previous Version | Text Only | Print | Product List | Glossary Off
Versions: 1 2 3 4 5 6 7 8 9 10 11 12 13 14 15 16 17 18 19 20 21 22 23 24 25 26 27 28 29 30 31 32 33 34 35 36 37 38 39 40 41 42 43 44 45 46 47 48 49 50

000
ASUS43 KLMK 051302
RWRKY
KENTUCKY REGIONAL WEATHER ROUNDUP
NATIONAL WEATHER SERVICE LOUISVILLE KY
900 AM EDT TUE MAY 05 2015

NOTE "FAIR" INDICATES FEW OR NO CLOUDS BELOW 12,000 FEET
WITH NO SIGNIFICANT WEATHER AND/OR OBSTRUCTIONS TO VISIBILITY.

KYZ001>023-026-027-061>063-070>075-051400-
WESTERN AND SOUTH CENTRAL KENTUCKY

CITY           SKY/WX    TMP DP  RH WIND       PRES   REMARKS
PADUCAH        SUNNY     70  55  59 VRB6      30.23R
HENDERSON      MOSUNNY   70  54  56 SW9       30.24R
OWENSBORO      SUNNY     68  57  67 S5        30.26R
HOPKINSVILLE   NOT AVBL
BOWLING GREEN  SUNNY     64  56  75 CALM      30.29R
GLASGOW        NOT AVBL
$$

KYZ024-025-028>034-038-045-046-053-051400-
NORTH CENTRAL KENTUCKY

CITY           SKY/WX    TMP DP  RH WIND       PRES   REMARKS
LOUISVILLE/SDF MOSUNNY   71  56  58 VRB3      30.27R
LOUISVILLE/LOU SUNNY     69  55  60 VRB5      30.28R
FORT KNOX      NOT AVBL
$$

KYZ035>037-039>044-047>052-055>060-089>105-051400-
NORTHEAST KENTUCKY

CITY           SKY/WX    TMP DP  RH WIND       PRES   REMARKS
LEXINGTON      SUNNY     68  55  63 SW8       30.30R
COVINGTON      MOSUNNY   68  59  73 S5        30.27R
FRANKFORT      SUNNY     68  55  63 SW7       30.28R
$$

KYZ054-064>069-076>088-106>120-051400-
SOUTHEAST KENTUCKY

CITY           SKY/WX    TMP DP  RH WIND       PRES   REMARKS
JACKSON        SUNNY     64  52  64 CALM      30.33R
LONDON         SUNNY     64  52  64 CALM      30.33S
SOMERSET       NOT AVBL
MIDDLESBORO    NOT AVBL
MONTICELLO     SUNNY     66  57  72 CALM      30.35R
$$




USA.gov is the U.S. government's official web portal to all federal, state and local government web resources and services.